Time,TemperatureF,DewpointF,PressureIn,WindDirection,WindDirectionDegrees,WindSpeedMPH,WindSpeedGustMPH,Humidity,HourlyPrecipIn,Conditions,Clouds,dailyrainin,SoftwareType,DateUTC
2013-03-19 00:10:00,29.3,27.0,29.08,ENE,69,2.0,-999.0,89,-99.99,,,0.00,weatherlink.com 1.10,2013-03-19 04:10:00,
2013-03-19 00:25:00,29.2,26.0,29.07,East,79,6.0,-999.0,89,-99.99,,,0.00,weatherlink.com 1.10,2013-03-19 04:25:00,
2013-03-19 00:40:00,29.3,27.0,29.06,ESE,109,8.0,-999.0,90,-99.99,,,0.00,weatherlink.com 1.10,2013-03-19 04:40:00,
2013-03-19 00:55:00,29.2,27.0,29.06,ESE,115,7.0,-999.0,91,-99.99,,,0.00,weatherlink.com 1.10,2013-03-19 04:55:00,
2013-03-19 01:10:00,29.4,27.0,29.05,East,84,3.0,-999.0,92,-99.99,,,0.00,weatherlink.com 1.10,2013-03-19 05:10:00,
2013-03-19 01:25:00,29.7,28.0,29.04,SE,135,5.0,-999.0,92,-99.99,,,0.00,weatherlink.com 1.10,2013-03-19 05:25:00,
2013-03-19 01:40:00,29.9,28.0,29.04,SE,140,6.0,-999.0,92,-99.99,,,0.00,weatherlink.com 1.10,2013-03-19 05:40:00,
2013-03-19 01:55:00,30.3,28.0,29.03,SE,140,8.0,-999.0,91,-99.99,,,0.00,weatherlink.com 1.10,2013-03-19 05:55:00,
2013-03-19 02:10:00,30.6,28.0,29.03,SE,129,4.0,-999.0,91,-99.99,,,0.00,weatherlink.com 1.10,2013-03-19 06:10:00,
2013-03-19 02:25:00,31.0,29.0,29.02,SE,138,6.0,-999.0,91,-99.99,,,0.00,weatherlink.com 1.10,2013-03-19 06:25:00,
2013-03-19 02:40:00,31.4,29.0,29.02,East,92,9.0,-999.0,91,-99.99,,,0.00,weatherlink.com 1.10,2013-03-19 06:40:00,
2013-03-19 02:55:00,31.8,29.0,29.00,ESE,109,6.0,-999.0,90,-99.99,,,0.00,weatherlink.com 1.10,2013-03-19 06:55:00,
2013-03-19 03:10:00,32.1,30.0,29.00,East,85,6.0,-999.0,90,-99.99,,,0.00,weatherlink.com 1.10,2013-03-19 07:10:00,
2013-03-19 03:25:00,32.1,30.0,29.00,East,97,5.0,-999.0,90,-99.99,,,0.00,weatherlink.com 1.10,2013-03-19 07:25:00,
2013-03-19 03:41:00,32.4,30.0,29.00,ESE,117,5.0,-999.0,90,-99.99,,,0.00,weatherlink.com 1.10,2013-03-19 07:41:00,
2013-03-19 03:56:00,32.4,30.0,28.99,SE,125,14.0,-999.0,90,-99.99,,,0.00,weatherlink.com 1.10,2013-03-19 07:56:00,
2013-03-19 04:11:00,32.7,30.0,28.98,ESE,103,2.0,-999.0,90,-99.99,,,0.00,weatherlink.com 1.10,2013-03-19 08:11:00,
2013-03-19 04:26:00,32.6,30.0,28.97,ESE,119,9.0,-999.0,91,-99.99,,,0.00,weatherlink.com 1.10,2013-03-19 08:26:00,
2013-03-19 04:41:00,32.8,30.0,28.97,SE,128,6.0,-999.0,90,-99.99,,,0.00,weatherlink.com 1.10,2013-03-19 08:41:00,
2013-03-19 04:56:00,33.0,30.0,28.98,SE,140,5.0,-999.0,90,-99.99,,,0.00,weatherlink.com 1.10,2013-03-19 08:56:00,
2013-03-19 05:11:00,33.1,31.0,28.97,ESE,116,9.0,-999.0,90,-99.99,,,0.00,weatherlink.com 1.10,2013-03-19 09:11:00,
2013-03-19 05:26:00,33.4,31.0,28.97,East,84,8.0,-999.0,90,-99.99,,,0.00,weatherlink.com 1.10,2013-03-19 09:26:00,
2013-03-19 05:56:00,33.2,31.0,28.97,ESE,105,6.0,-999.0,90,-99.99,,,0.00,weatherlink.com 1.10,2013-03-19 09:56:00,
2013-03-19 06:56:00,33.3,31.0,29.00,ESE,118,6.0,-999.0,90,-99.99,,,0.00,weatherlink.com 1.10,2013-03-19 10:56:00,
2013-03-19 07:11:00,33.2,31.0,29.00,ESE,117,4.0,-999.0,91,-99.99,,,0.00,weatherlink.com 1.10,2013-03-19 11:11:00,
2013-03-19 08:08:00,32.6,31.0,29.01,SE,132,0.0,-999.0,93,-99.99,,,0.00,weatherlink.com 1.10,2013-03-19 12:08:00,
2013-03-19 08:20:00,32.7,31.0,29.00,SE,144,4.0,-999.0,94,-99.99,,,0.00,weatherlink.com 1.10,2013-03-19 12:20:00,
2013-03-19 08:26:00,32.9,31.0,29.00,ESE,111,4.0,-999.0,94,-99.99,,,0.00,weatherlink.com 1.10,2013-03-19 12:26:00,
2013-03-19 08:41:00,32.8,31.0,28.99,ESE,103,4.0,-999.0,94,-99.99,,,0.00,weatherlink.com 1.10,2013-03-19 12:41:00,
2013-03-19 08:56:00,32.8,31.0,29.00,ESE,122,5.0,-999.0,94,-99.99,,,0.00,weatherlink.com 1.10,2013-03-19 12:56:00,
2013-03-19 09:11:00,33.0,31.0,28.99,East,81,3.0,-999.0,93,-99.99,,,0.00,weatherlink.com 1.10,2013-03-19 13:11:00,
2013-03-19 09:26:00,33.5,32.0,28.99,East,98,6.0,-999.0,92,-99.99,,,0.00,weatherlink.com 1.10,2013-03-19 13:26:00,
2013-03-19 09:41:00,33.8,32.0,28.99,SE,139,4.0,-999.0,91,-99.99,,,0.00,weatherlink.com 1.10,2013-03-19 13:41:00,
2013-03-19 09:57:00,34.1,32.0,28.99,ESE,103,6.0,-999.0,90,-99.99,,,0.00,weatherlink.com 1.10,2013-03-19 13:57:00,
2013-03-19 10:12:00,34.9,32.0,28.99,SE,128,6.0,-999.0,89,-99.99,,,0.00,weatherlink.com 1.10,2013-03-19 14:12:00,
2013-03-19 10:27:00,35.7,33.0,28.99,SE,127,8.0,-999.0,88,-99.99,,,0.00,weatherlink.com 1.10,2013-03-19 14:27:00,
2013-03-19 10:42:00,35.7,32.0,28.99,SE,130,7.0,-999.0,87,-99.99,,,0.02,weatherlink.com 1.10,2013-03-19 14:42:00,
2013-03-19 10:57:00,36.2,33.0,28.98,ESE,117,5.0,-999.0,87,-99.99,,,0.03,weatherlink.com 1.10,2013-03-19 14:57:00,
2013-03-19 11:12:00,36.8,33.0,28.98,South,181,4.0,-999.0,86,-99.99,,,0.05,weatherlink.com 1.10,2013-03-19 15:12:00,
2013-03-19 11:27:00,37.6,34.0,28.98,South,173,6.0,-999.0,86,-99.99,,,0.06,weatherlink.com 1.10,2013-03-19 15:27:00,
2013-03-19 11:57:00,39.3,34.0,28.96,SE,142,5.0,-999.0,80,-99.99,,,0.07,weatherlink.com 1.10,2013-03-19 15:57:00,
2013-03-19 12:12:00,40.0,34.0,28.95,SE,140,7.0,-999.0,79,-99.99,,,0.09,weatherlink.com 1.10,2013-03-19 16:12:00,
2013-03-19 12:27:00,41.2,33.0,28.94,South,176,9.0,-999.0,72,-99.99,,,0.09,weatherlink.com 1.10,2013-03-19 16:27:00,
2013-03-19 12:42:00,41.5,32.0,28.95,SSE,155,5.0,-999.0,69,-99.99,,,0.10,weatherlink.com 1.10,2013-03-19 16:42:00,
2013-03-19 12:57:00,41.8,28.0,28.94,SW,236,7.0,-999.0,58,-99.99,,,0.10,weatherlink.com 1.10,2013-03-19 16:57:00,
2013-03-19 13:12:00,41.0,29.0,28.93,SE,136,5.0,-999.0,62,-99.99,,,0.10,weatherlink.com 1.10,2013-03-19 17:12:00,
2013-03-19 13:27:00,42.2,28.0,28.93,South,172,5.0,-999.0,58,-99.99,,,0.10,weatherlink.com 1.10,2013-03-19 17:27:00,
2013-03-19 13:42:00,42.9,28.0,28.93,SSW,205,7.0,-999.0,57,-99.99,,,0.10,weatherlink.com 1.10,2013-03-19 17:42:00,
2013-03-19 13:57:00,41.8,28.0,28.92,SSE,157,1.0,-999.0,59,-99.99,,,0.10,weatherlink.com 1.10,2013-03-19 17:57:00,
2013-03-19 14:12:00,42.1,29.0,28.92,SW,227,0.0,-999.0,61,-99.99,,,0.10,weatherlink.com 1.10,2013-03-19 18:12:00,
2013-03-19 14:27:00,42.2,29.0,28.92,SSW,212,3.0,-999.0,60,-99.99,,,0.10,weatherlink.com 1.10,2013-03-19 18:27:00,
2013-03-19 14:42:00,41.5,29.0,28.92,SSW,209,5.0,-999.0,62,-99.99,,,0.10,weatherlink.com 1.10,2013-03-19 18:42:00,
2013-03-19 14:57:00,40.5,29.0,28.92,SSW,210,4.0,-999.0,65,-99.99,,,0.10,weatherlink.com 1.10,2013-03-19 18:57:00,
2013-03-19 15:12:00,39.4,31.0,28.92,WSW,240,4.0,-999.0,73,-99.99,,,0.10,weatherlink.com 1.10,2013-03-19 19:12:00,
2013-03-19 15:27:00,38.9,33.0,28.93,WSW,243,4.0,-999.0,78,-99.99,,,0.10,weatherlink.com 1.10,2013-03-19 19:27:00,
2013-03-19 15:42:00,33.0,30.0,28.94,West,271,4.0,-999.0,87,-99.99,,,0.10,weatherlink.com 1.10,2013-03-19 19:42:00,
2013-03-19 15:57:00,31.6,29.0,28.96,West,274,2.0,-999.0,91,-99.99,,,0.10,weatherlink.com 1.10,2013-03-19 19:57:00,
2013-03-19 16:12:00,31.2,29.0,28.97,WSW,250,6.0,-999.0,92,-99.99,,,0.10,weatherlink.com 1.10,2013-03-19 20:12:00,
2013-03-19 16:27:00,30.8,29.0,28.97,WNW,284,3.0,-999.0,93,-99.99,,,0.10,weatherlink.com 1.10,2013-03-19 20:27:00,
2013-03-19 16:42:00,30.7,29.0,28.97,WNW,295,2.0,-999.0,93,-99.99,,,0.10,weatherlink.com 1.10,2013-03-19 20:42:00,
2013-03-19 16:57:00,30.4,28.0,28.98,West,266,4.0,-999.0,92,-99.99,,,0.10,weatherlink.com 1.10,2013-03-19 20:57:00,
2013-03-19 17:12:00,30.1,28.0,28.99,SW,234,2.0,-999.0,92,-99.99,,,0.10,weatherlink.com 1.10,2013-03-19 21:12:00,
2013-03-19 17:27:00,29.9,27.0,29.00,SW,235,5.0,-999.0,89,-99.99,,,0.10,weatherlink.com 1.10,2013-03-19 21:27:00,
2013-03-19 17:42:00,29.6,26.0,29.00,NW,316,1.0,-999.0,87,-99.99,,,0.10,weatherlink.com 1.10,2013-03-19 21:42:00,
2013-03-19 17:57:00,29.8,26.0,29.01,SSW,194,4.0,-999.0,85,-99.99,,,0.10,weatherlink.com 1.10,2013-03-19 21:57:00,
2013-03-19 18:12:00,30.3,26.0,29.02,SW,229,1.0,-999.0,84,-99.99,,,0.10,weatherlink.com 1.10,2013-03-19 22:12:00,
2013-03-19 18:27:00,29.7,25.0,29.03,WSW,247,7.0,-999.0,81,-99.99,,,0.10,weatherlink.com 1.10,2013-03-19 22:27:00,
2013-03-19 18:42:00,29.8,25.0,29.03,SW,221,5.0,-999.0,81,-99.99,,,0.10,weatherlink.com 1.10,2013-03-19 22:42:00,
2013-03-19 18:57:00,29.9,24.0,29.04,South,189,4.0,-999.0,79,-99.99,,,0.10,weatherlink.com 1.10,2013-03-19 22:57:00,
2013-03-19 19:12:00,30.0,23.0,29.04,SW,232,6.0,-999.0,75,-99.99,,,0.10,weatherlink.com 1.10,2013-03-19 23:12:00,
2013-03-19 19:27:00,29.9,23.0,29.05,SW,231,5.0,-999.0,74,-99.99,,,0.10,weatherlink.com 1.10,2013-03-19 23:27:00,
2013-03-19 19:42:00,29.7,21.0,29.05,WSW,252,11.0,-999.0,70,-99.99,,,0.10,weatherlink.com 1.10,2013-03-19 23:42:00,
2013-03-19 19:57:00,29.3,21.0,29.05,SSW,210,4.0,-999.0,70,-99.99,,,0.10,weatherlink.com 1.10,2013-03-19 23:57:00,
2013-03-19 20:12:00,29.0,21.0,29.05,SSW,209,3.0,-999.0,71,-99.99,,,0.10,weatherlink.com 1.10,2013-03-20 00:12:00,
2013-03-19 20:27:00,28.8,21.0,29.07,SW,225,3.0,-999.0,73,-99.99,,,0.10,weatherlink.com 1.10,2013-03-20 00:27:00,
2013-03-19 20:42:00,28.4,21.0,29.07,WSW,252,2.0,-999.0,75,-99.99,,,0.10,weatherlink.com 1.10,2013-03-20 00:42:00,
2013-03-19 20:57:00,27.8,22.0,29.07,WSW,237,2.0,-999.0,78,-99.99,,,0.10,weatherlink.com 1.10,2013-03-20 00:57:00,
2013-03-19 21:12:00,27.5,22.0,29.07,WSW,243,10.0,-999.0,78,-99.99,,,0.10,weatherlink.com 1.10,2013-03-20 01:12:00,
2013-03-19 21:27:00,27.5,21.0,29.07,SSW,210,5.0,-999.0,76,-99.99,,,0.10,weatherlink.com 1.10,2013-03-20 01:27:00,
2013-03-19 21:43:00,27.4,21.0,29.07,SW,219,4.0,-999.0,77,-99.99,,,0.10,weatherlink.com 1.10,2013-03-20 01:43:00,
2013-03-19 21:58:00,27.3,21.0,29.07,SSW,211,5.0,-999.0,77,-99.99,,,0.10,weatherlink.com 1.10,2013-03-20 01:58:00,
2013-03-19 22:13:00,27.3,20.0,29.07,SSW,213,3.0,-999.0,75,-99.99,,,0.10,weatherlink.com 1.10,2013-03-20 02:13:00,
2013-03-19 22:28:00,27.2,20.0,29.07,SW,225,4.0,-999.0,74,-99.99,,,0.10,weatherlink.com 1.10,2013-03-20 02:28:00,
2013-03-19 22:43:00,27.1,20.0,29.07,SW,229,6.0,-999.0,74,-99.99,,,0.10,weatherlink.com 1.10,2013-03-20 02:43:00,
2013-03-19 22:58:00,27.0,20.0,29.07,SW,217,5.0,-999.0,74,-99.99,,,0.10,weatherlink.com 1.10,2013-03-20 02:58:00,
2013-03-19 23:13:00,26.8,20.0,29.07,SSW,205,4.0,-999.0,75,-99.99,,,0.10,weatherlink.com 1.10,2013-03-20 03:13:00,
2013-03-19 23:28:00,26.9,20.0,29.07,SSW,212,3.0,-999.0,75,-99.99,,,0.10,weatherlink.com 1.10,2013-03-20 03:28:00,
2013-03-19 23:43:00,26.9,20.0,29.07,WSW,250,3.0,-999.0,74,-99.99,,,0.10,weatherlink.com 1.10,2013-03-20 03:43:00,
2013-03-19 23:58:00,26.9,20.0,29.07,SW,220,2.0,-999.0,74,-99.99,,,0.10,weatherlink.com 1.10,2013-03-20 03:58:00,